�������l�o���
Date,Time,MP-1(��Sv/h),MP-2(��Sv/h),MP-3(��Sv/h),MP-4(��Sv/h),MP-5(��Sv/h),MP-6(��Sv/h),MP-7(��Sv/h),MP-8(��Sv/h),����,����(m/s),���J
2017/03/15,00:00,0.981,1.592,1.094,1.907,1.302,0.532,0.980,0.915,�k�k��,8.9,�L
2017/03/15,00:10,0.980,1.592,1.091,1.906,1.298,0.531,0.978,0.916,�k�k��,8.7,�L
2017/03/15,00:20,0.978,1.590,1.089,1.901,1.298,0.533,0.977,0.914,�k�k��,11.1,�L
2017/03/15,00:30,0.978,1.589,1.090,1.903,1.294,0.530,0.978,0.914,�k�k��,10.4,�L
2017/03/15,00:40,0.979,1.591,1.090,1.902,1.297,0.532,0.977,0.915,�k�k��,11.3,�L
2017/03/15,00:50,0.980,1.590,1.090,1.901,1.298,0.532,0.977,0.916,�k�k��,11.4,�L
2017/03/15,01:00,0.978,1.588,1.089,1.898,1.298,0.532,0.975,0.914,�k�k��,10.8,�L
2017/03/15,01:10,0.979,1.588,1.088,1.898,1.297,0.532,0.976,0.915,�k�k��,10.0,�L
2017/03/15,01:20,0.979,1.591,1.090,1.900,1.296,0.533,0.978,0.916,�k�k��,10.9,�L
2017/03/15,01:30,0.977,1.590,1.091,1.903,1.298,0.533,0.979,0.913,�k�k��,11.9,�L
2017/03/15,01:40,0.983,1.590,1.092,1.901,1.298,0.534,0.980,0.915,�k�k��,12.4,�L
2017/03/15,01:50,0.980,1.594,1.092,1.904,1.299,0.535,0.978,0.917,�k�k��,10.8,�L
2017/03/15,02:00,0.980,1.593,1.091,1.905,1.301,0.536,0.979,0.914,�k�k��,10.7,�L
2017/03/15,02:10,0.982,1.592,1.093,1.905,1.301,0.535,0.980,0.917,�k�k��,10.4,�L
2017/03/15,02:20,0.984,1.593,1.092,1.906,1.304,0.535,0.978,0.916,�k�k��,10.3,�L
2017/03/15,02:30,0.983,1.595,1.091,1.902,1.302,0.537,0.980,0.916,�k�k��,10.3,�L
2017/03/15,02:40,0.985,1.595,1.095,1.907,1.302,0.536,0.980,0.916,�k�k��,9.6,�L
2017/03/15,02:50,0.987,1.596,1.094,1.908,1.302,0.535,0.981,0.916,�k�k��,10.2,�L
2017/03/15,03:00,0.987,1.595,1.094,1.906,1.302,0.535,0.982,0.916,�k�k��,9.5,�L
2017/03/15,03:10,0.986,1.599,1.093,1.905,1.305,0.536,0.981,0.916,�k�k��,8.6,�L
2017/03/15,03:20,0.986,1.597,1.094,1.908,1.306,0.535,0.982,0.916,�k�k��,9.7,�L
2017/03/15,03:30,0.985,1.597,1.096,1.904,1.303,0.537,0.983,0.917,�k�k��,11.6,�L
2017/03/15,03:40,0.986,1.597,1.094,1.906,1.303,0.535,0.982,0.916,�k�k��,11.4,�L
2017/03/15,03:50,0.984,1.596,1.094,1.905,1.300,0.534,0.982,0.917,�k�k��,11.6,�L
2017/03/15,04:00,0.984,1.596,1.095,1.904,1.301,0.536,0.981,0.916,�k�k��,11.6,�L
2017/03/15,04:10,0.987,1.597,1.094,1.907,1.299,0.536,0.982,0.916,�k�k��,11.0,�L
2017/03/15,04:20,0.986,1.600,1.095,1.904,1.300,0.535,0.981,0.917,�k�k��,11.1,�L
2017/03/15,04:30,0.986,1.599,1.093,1.904,1.304,0.536,0.981,0.916,�k�k��,12.7,�L
2017/03/15,04:40,0.986,1.598,1.094,1.908,1.303,0.537,0.980,0.919,�k�k��,11.1,�L
2017/03/15,04:50,0.986,1.601,1.095,1.909,1.302,0.537,0.984,0.917,�k�k��,11.6,�L
2017/03/15,05:00,0.988,1.603,1.096,1.911,1.307,0.537,0.984,0.918,�k�k��,12.4,�L
2017/03/15,05:10,0.989,1.603,1.095,1.909,1.304,0.536,0.983,0.918,�k�k��,10.9,�L
2017/03/15,05:20,0.989,1.603,1.097,1.909,1.309,0.537,0.983,0.918,�k�k��,10.9,�L
2017/03/15,05:30,0.986,1.603,1.096,1.913,1.309,0.536,0.986,0.918,�k�k��,10.7,�L
2017/03/15,05:40,0.988,1.603,1.095,1.911,1.312,0.535,0.982,0.919,�k�k��,11.0,�L
2017/03/15,05:50,0.986,1.599,1.096,1.907,1.306,0.537,0.983,0.918,�k�k��,11.4,�L
2017/03/15,06:00,0.986,1.597,1.092,1.904,1.305,0.534,0.981,0.917,�k�k��,12.5,�L
2017/03/15,06:10,0.983,1.595,1.089,1.901,1.303,0.535,0.982,0.917,�k�k��,9.5,�L
2017/03/15,06:20,0.980,1.592,1.090,1.897,1.297,0.535,0.977,0.914,�k�k��,10.6,�L
2017/03/15,06:30,0.975,1.586,1.086,1.891,1.293,0.534,0.978,0.915,�k�k��,10.9,�L
2017/03/15,06:40,0.972,1.584,1.080,1.885,1.292,0.534,0.974,0.916,�k�k��,11.7,�L
2017/03/15,06:50,0.967,1.577,1.079,1.882,1.285,0.533,0.971,0.911,�k�k��,10.0,�L
2017/03/15,07:00,0.963,1.576,1.077,1.879,1.284,0.533,0.969,0.913,�k�k��,10.6,�L
2017/03/15,07:10,0.962,1.571,1.074,1.874,1.283,0.533,0.969,0.911,�k�k��,12.1,�L
2017/03/15,07:20,0.960,1.566,1.071,1.874,1.278,0.530,0.967,0.910,�k�k��,11.8,�L
2017/03/15,07:30,0.955,1.562,1.067,1.868,1.275,0.530,0.967,0.909,�k�k��,10.8,�L
2017/03/15,07:40,0.953,1.560,1.066,1.867,1.271,0.529,0.964,0.908,�k�k��,12.1,�L
2017/03/15,07:50,0.948,1.556,1.063,1.863,1.267,0.529,0.964,0.908,�k�k��,10.2,�L
2017/03/15,08:00,0.946,1.552,1.063,1.860,1.265,0.529,0.963,0.907,�k�k��,11.0,�L
2017/03/15,08:10,0.941,1.547,1.060,1.857,1.264,0.527,0.963,0.908,�k�k��,9.8,�L
2017/03/15,08:20,0.939,1.546,1.057,1.858,1.259,0.528,0.962,0.906,�k�k��,10.0,�L
2017/03/15,08:30,0.937,1.539,1.055,1.853,1.254,0.526,0.960,0.904,�k�k��,9.8,�L
2017/03/15,08:40,0.930,1.536,1.049,1.848,1.248,0.526,0.956,0.902,�k�k��,10.9,�L
2017/03/15,08:50,0.925,1.527,1.046,1.844,1.242,0.524,0.954,0.900,�k�k��,12.2,�L
2017/03/15,09:00,0.920,1.521,1.041,1.838,1.238,0.524,0.952,0.897,�k�k��,10.2,�L
2017/03/15,09:10,0.915,1.510,1.036,1.832,1.224,0.523,0.948,0.894,�k�k��,10.5,�L
2017/03/15,09:20,0.913,1.501,1.032,1.824,1.217,0.521,0.943,0.893,�k,8.7,�L
2017/03/15,09:30,0.907,1.492,1.029,1.819,1.211,0.518,0.944,0.891,�k,10.1,�L
2017/03/15,09:40,0.905,1.487,1.024,1.816,1.207,0.518,0.941,0.891,�k�k��,10.4,�L
2017/03/15,09:50,0.901,1.493,1.021,1.811,1.205,0.515,0.941,0.891,�k�k��,10.3,�L
2017/03/15,10:00,0.903,1.488,1.019,1.808,1.203,0.516,0.940,0.891,�k�k��,10.6,�L
2017/03/15,10:10,0.901,1.487,1.020,1.807,1.200,0.514,0.941,0.891,�k�k��,10.0,�L
2017/03/15,10:20,0.898,1.486,1.020,1.805,1.197,0.514,0.942,0.892,�k�k��,10.2,�L
2017/03/15,10:30,0.901,1.489,1.021,1.804,1.197,0.512,0.946,0.893,�k�k��,10.2,�L
2017/03/15,10:40,0.901,1.493,1.025,1.809,1.200,0.513,0.948,0.895,�k�k��,11.0,�L
2017/03/15,10:50,0.902,1.498,1.027,1.812,1.202,0.513,0.950,0.897,�k�k��,9.9,�L
2017/03/15,11:00,0.904,1.500,1.032,1.818,1.207,0.514,0.953,0.899,�k�k��,8.8,��
2017/03/15,11:10,0.907,1.507,1.033,1.825,1.210,0.514,0.955,0.900,�k�k��,8.0,��
2017/03/15,11:20,0.909,1.510,1.037,1.828,1.214,0.514,0.954,0.900,�k�k��,8.2,��
2017/03/15,11:30,0.913,1.514,1.041,1.833,1.216,0.514,0.956,0.902,�k�k��,11.1,��
2017/03/15,11:40,0.914,1.521,1.042,1.841,1.222,0.515,0.956,0.903,�k�k��,9.4,��
2017/03/15,11:50,0.916,1.527,1.048,1.839,1.226,0.516,0.959,0.907,�k�k��,9.4,��
2017/03/15,12:00,0.920,1.531,1.050,1.847,1.228,0.518,0.962,0.907,�k�k��,9.9,��
2017/03/15,12:10,0.925,1.537,1.054,1.854,1.233,0.518,0.965,0.909,�k,9.8,��
2017/03/15,12:20,0.927,1.538,1.056,1.857,1.236,0.521,0.967,0.910,�k,10.6,��
2017/03/15,12:30,0.930,1.547,1.057,1.860,1.245,0.522,0.967,0.911,�k,11.4,��
2017/03/15,12:40,0.933,1.551,1.062,1.865,1.246,0.525,0.968,0.910,�k,10.5,��
2017/03/15,12:50,0.936,1.558,1.066,1.868,1.254,0.523,0.973,0.911,�k,8.5,��
2017/03/15,13:00,0.940,1.558,1.070,1.871,1.260,0.524,0.973,0.912,�k,11.3,��
2017/03/15,13:10,0.943,1.562,1.073,1.876,1.264,0.527,0.973,0.913,�k,11.3,��
2017/03/15,13:20,0.945,1.571,1.073,1.878,1.270,0.527,0.974,0.912,�k,11.8,��
2017/03/15,13:30,0.948,1.573,1.078,1.886,1.273,0.526,0.975,0.915,�k,13.0,��
2017/03/15,13:40,0.953,1.572,1.083,1.890,1.275,0.529,0.979,0.917,�k,12.0,��
2017/03/15,13:50,0.958,1.582,1.082,1.891,1.278,0.531,0.978,0.914,�k�k��,14.1,��
2017/03/15,14:00,0.961,1.583,1.086,1.894,1.281,0.530,0.979,0.914,�k�k��,11.8,��
2017/03/15,14:10,0.965,1.585,1.086,1.898,1.286,0.531,0.979,0.916,�k�k��,10.8,��
2017/03/15,14:20,0.969,1.589,1.090,1.902,1.289,0.533,0.980,0.918,�k�k��,11.1,��
2017/03/15,14:30,0.971,1.591,1.093,1.905,1.292,0.532,0.981,0.918,�k,13.0,��
2017/03/15,14:40,0.976,1.595,1.095,1.907,1.298,0.534,0.982,0.916,�k,11.8,��
2017/03/15,14:50,0.979,1.598,1.094,1.913,1.298,0.533,0.984,0.916,�k,11.6,��
2017/03/15,15:00,0.980,1.602,1.097,1.911,1.299,0.533,0.984,0.918,�k,10.9,��
2017/03/15,15:10,0.982,1.600,1.097,1.911,1.302,0.535,0.982,0.918,�k�k��,9.5,��
2017/03/15,15:20,0.984,1.602,1.098,1.915,1.304,0.536,0.984,0.919,�k,8.9,��
2017/03/15,15:30,0.986,1.604,1.098,1.917,1.307,0.535,0.984,0.919,�k,9.9,��
2017/03/15,15:40,0.986,1.606,1.100,1.915,1.307,0.535,0.986,0.919,�k�k��,8.8,��
2017/03/15,15:50,0.986,1.608,1.102,1.918,1.306,0.536,0.986,0.919,�k,7.9,��
2017/03/15,16:00,0.988,1.608,1.102,1.921,1.307,0.536,0.988,0.920,�k�k��,6.8,��
2017/03/15,16:10,0.989,1.610,1.101,1.923,1.310,0.534,0.988,0.922,�k�k��,7.4,��
2017/03/15,16:20,0.990,1.612,1.104,1.921,1.311,0.536,0.987,0.922,�k�k��,5.9,��
2017/03/15,16:30,0.988,1.611,1.102,1.923,1.311,0.535,0.987,0.921,�k�k��,6.5,��
2017/03/15,16:40,0.990,1.611,1.103,1.923,1.311,0.536,0.989,0.921,�k�k��,5.4,��
2017/03/15,16:50,0.993,1.613,1.105,1.926,1.315,0.536,0.988,0.924,�k�k��,5.8,��
2017/03/15,17:00,0.991,1.616,1.105,1.925,1.315,0.536,0.989,0.920,�k�k��,5.5,��
2017/03/15,17:10,0.993,1.615,1.106,1.926,1.317,0.537,0.989,0.920,�k�k��,5.8,��
2017/03/15,17:20,0.992,1.616,1.104,1.925,1.316,0.535,0.990,0.920,�k�k��,5.5,��
2017/03/15,17:30,0.992,1.619,1.105,1.930,1.317,0.536,0.988,0.921,�k�k��,5.5,��
2017/03/15,17:40,0.993,1.619,1.105,1.926,1.317,0.536,0.988,0.920,�k�k��,6.0,��
2017/03/15,17:50,0.994,1.618,1.105,1.928,1.319,0.537,0.990,0.920,�k�k��,5.5,��
2017/03/15,18:00,0.991,1.619,1.104,1.927,1.317,0.536,0.988,0.920,�k�k��,6.0,��
2017/03/15,18:10,0.993,1.620,1.106,1.930,1.320,0.537,0.989,0.922,�k,5.9,��
2017/03/15,18:20,0.992,1.618,1.105,1.928,1.318,0.536,0.988,0.920,�k�k��,5.2,��
2017/03/15,18:30,0.993,1.618,1.106,1.924,1.320,0.538,0.989,0.922,�k�k��,4.7,��
2017/03/15,18:40,0.994,1.620,1.105,1.928,1.316,0.538,0.987,0.921,�k�k��,5.2,��
2017/03/15,18:50,0.994,1.620,1.104,1.928,1.322,0.537,0.991,0.922,�k�k��,5.6,��
2017/03/15,19:00,0.992,1.620,1.107,1.927,1.319,0.536,0.988,0.920,�k�k��,5.6,��
2017/03/15,19:10,0.995,1.620,1.107,1.927,1.318,0.538,0.990,0.921,�k�k��,5.0,��
2017/03/15,19:20,0.993,1.619,1.107,1.931,1.321,0.536,0.990,0.921,�k��,6.1,��
2017/03/15,19:30,0.992,1.620,1.106,1.931,1.321,0.537,0.988,0.922,�k��,7.4,��
2017/03/15,19:40,0.995,1.620,1.106,1.929,1.319,0.537,0.991,0.922,�k��,7.0,��
2017/03/15,19:50,0.992,1.620,1.106,1.931,1.321,0.538,0.990,0.920,�k��,7.3,��
2017/03/15,20:00,0.994,1.623,1.105,1.930,1.321,0.537,0.990,0.921,�k��,6.6,��
2017/03/15,20:10,0.994,1.618,1.106,1.930,1.321,0.538,0.989,0.921,�k�k��,6.6,��
2017/03/15,20:20,0.993,1.622,1.106,1.931,1.325,0.539,0.988,0.918,�k�k��,6.8,��
2017/03/15,20:30,0.993,1.623,1.106,1.934,1.323,0.537,0.990,0.923,�k�k��,5.9,��
2017/03/15,20:40,0.993,1.620,1.107,1.930,1.325,0.538,0.992,0.922,�k�k��,6.6,��
2017/03/15,20:50,0.993,1.622,1.108,1.932,1.323,0.538,0.990,0.922,�k��,5.9,��
2017/03/15,21:00,0.994,1.620,1.108,1.933,1.325,0.536,0.990,0.921,�k�k��,7.0,��
2017/03/15,21:10,0.995,1.621,1.107,1.933,1.323,0.538,0.989,0.921,�k�k��,6.8,��
2017/03/15,21:20,0.993,1.622,1.107,1.935,1.325,0.538,0.989,0.923,�k�k��,6.6,��
2017/03/15,21:30,0.995,1.620,1.108,1.934,1.324,0.538,0.990,0.923,�k�k��,6.4,��
2017/03/15,21:40,0.993,1.623,1.110,1.929,1.323,0.538,0.991,0.919,�k�k��,6.0,��
2017/03/15,21:50,0.995,1.623,1.108,1.930,1.321,0.537,0.992,0.921,�k��,6.3,��
2017/03/15,22:00,0.994,1.622,1.110,1.936,1.324,0.538,0.993,0.922,�k�k��,7.0,��
2017/03/15,22:10,0.994,1.621,1.109,1.931,1.323,0.537,0.991,0.921,�k�k��,7.2,��
2017/03/15,22:20,0.994,1.623,1.109,1.935,1.325,0.536,0.991,0.921,�k�k��,7.1,��
2017/03/15,22:30,0.995,1.622,1.110,1.931,1.323,0.539,0.990,0.922,�k�k��,7.3,��
2017/03/15,22:40,0.997,1.622,1.107,1.934,1.324,0.538,0.990,0.921,�k�k��,8.2,��
2017/03/15,22:50,0.995,1.624,1.108,1.932,1.326,0.537,0.990,0.922,�k�k��,6.8,��
2017/03/15,23:00,0.994,1.624,1.107,1.933,1.326,0.538,0.989,0.922,�k�k��,6.6,��
2017/03/15,23:10,0.994,1.622,1.109,1.933,1.327,0.536,0.991,0.922,�k�k��,7.0,��
2017/03/15,23:20,0.995,1.624,1.111,1.935,1.325,0.538,0.990,0.922,�k�k��,7.0,��
2017/03/15,23:30,0.996,1.625,1.109,1.933,1.324,0.538,0.991,0.922,�k�k��,6.8,��
2017/03/15,23:40,0.996,1.624,1.107,1.936,1.326,0.539,0.990,0.922,�k�k��,7.5,��
2017/03/15,23:50,0.994,1.626,1.109,1.934,1.324,0.539,0.991,0.922,�k�k��,6.9,��
